Retour au catalogue

COSMOS 926 DEB

ActifPO
NORAD 13475·DEBRIS·🇷🇺 Russia

Lancé Jul 8, 1977 depuis Plesetsk Cosmodrome

Loading…

Prochains Passages (prochaines 24 heures)

TLE

PériméSource: Space-Track

Époque: Jan 26, 1994, 13:23 UTC

1 13475U 77062C   94026.55792019 -.00007384 +00000-0 -75706-2 0  9992
2 13475 082.9538 074.8498 0043319 029.3774 327.9200 13.76116993680406

Suivez COSMOS 926 DEB en temps réel avec AllMySat

Download on the App Store